Temperature
24 24 24 24 24 24 24 24 23 23 23 24 24 24 23 23 22 21 21 20 20 19 18 18 18 17 17 17 17 16 16 16 16 15 15 15 15 15 14 14 14 14 14 13
24 25 25 24 24 24 24 24 24 24 24 25 24 24 23 23 22 21 20 20 19 19 18 18 18 17 17 17 17 16 16 16 16 15 15 15 15 14 14 14 14 14 14 13
23 24 24 23 25 25 24 25 25 24 24 25 24 24 23 23 22 21 21 20 19 19 18 18 18 17 17 17 17 16 16 16 16 15 15 15 15 14 14 14 14 13 13 13
23 23 22 24 26 26 25 25 26 25 25 25 24 24 23 23 22 21 21 20 19 19 18 18 18 17 17 17 16 16 16 16 16 15 15 15 15 14 14 14 14 13 13 13
22 22 23 24 26 26 25 24 26 25 25 25 24 23 23 23 22 21 21 20 19 19 18 18 18 17 17 16 16 16 16 16 15 15 15 15 14 14 14 14 14 13 13 13
22 21 21 23 25 26 25 23 25 25 25 24 24 22 22 22 21 21 20 20 19 19 19 18 18 17 17 16 16 16 16 15 15 15 15 15 14 14 14 14 13 13 13 13
21 21 22 24 25 25 23 23 25 25 24 24 23 23 22 21 21 20 20 19 19 19 18 18 18 17 17 16 16 16 15 15 15 15 15 15 14 14 14 13 13 13 12 12
22 22 22 24 24 24 24 25 24 24 24 23 23 22 22 21 20 20 19 19 18 18 18 18 17 17 17 16 16 15 15 15 15 14 14 14 14 14 13 13 13 12 12 12
23 22 23 24 24 23 24 24 23 23 23 22 22 21 21 20 19 19 19 18 18 18 17 17 17 17 17 16 16 15 15 15 14 14 14 14 14 13 13 13 13 12 12 12
23 23 23 23 23 23 23 23 22 22 22 21 21 20 20 19 19 18 18 18 17 17 17 17 16 16 16 16 16 15 15 14 14 14 13 13 13 13 13 13 12 12 12 12
22 22 22 22 22 22 22 22 21 21 21 20 20 20 19 19 18 18 17 17 17 17 16 16 16 16 16 15 15 15 14 14 14 13 13 13 13 13 13 13 12 12 12 12
21 22 22 21 21 21 21 21 20 20 20 19 19 19 19 18 18 17 17 17 16 16 16 16 16 15 15 15 15 14 14 13 13 13 13 13 13 12 12 12 12 12 11 11
21 21 21 20 20 20 20 20 20 19 19 19 19 18 18 18 17 17 16 16 16 16 16 15 15 15 15 14 14 14 13 13 13 13 13 12 12 12 12 12 11 11 11 11
20 20 20 19 19 19 19 19 19 19 18 18 18 18 18 17 17 17 16 16 16 16 15 15 15 14 14 14 13 13 13 13 13 13 12 12 12 12 12 12 11 11 11 11
19 19 19 18 18 19 18 18 18 18 18 18 17 17 17 17 16 16 16 16 15 15 15 14 14 14 14 13 13 13 13 13 12 12 12 12 12 11 11 11 11 11 11 10
18 18 18 18 18 18 18 18 17 17 17 17 17 17 16 16 16 15 15 15 15 14 14 14 14 14 14 13 13 12 12 12 12 12 12 11 11 11 11 11 11 10 10 10
17 17 17 17 17 17 17 17 17 16 16 16 16 16 16 15 15 15 15 14 14 14 14 14 14 13 13 13 13 12 12 12 12 11 11 11 11 11 10 10 10 10 10 10
17 17 17 17 17 17 17 16 16 16 16 16 16 15 15 15 15 14 14 14 14 13 13 13 13 13 13 12 12 12 11 11 11 11 11 11 10 10 10 10 10 9 9 9
16 16 16 16 16 16 16 16 15 15 15 15 15 15 15 15 14 14 14 14 13 13 13 13 13 13 12 12 12 11 11 11 11 10 10 10 10 10 10 9 9 9 9 8
15 15 16 15 15 15 15 15 15 15 15 15 14 14 14 14 14 14 13 13 13 13 13 13 12 12 12 12 11 11 11 10 10 10 10 10 9 9 9 9 9 8 8 8
15 15 15 15 15 15 15 15 14 14 14 14 14 14 14 13 13 13 13 13 12 12 12 12 12 12 12 11 11 11 10 10 10 10 9 9 9 9 9 8 8 8 8 8
14 14 14 14 14 14 14 14 14 14 14 14 14 13 13 13 13 13 12 12 12 12 12 12 12 12 11 11 11 10 10 10 10 9 9 9 8 8 8 8 8 8 7 7
14 13 13 13 13 14 14 14 14 13 13 13 13 13 13 13 12 12 12 12 12 11 11 11 11 11 11 11 10 10 10 9 9 9 9 8 8 8 8 7 7 7 7 7
13 13 13 13 13 13 13 13 13 13 13 13 13 12 12 12 12 12 12 11 11 11 11 11 11 11 11 10 10 10 9 9 9 8 8 8 7 7 7 7 7 7 6 6
12 12 12 13 12 12 12 12 12 12 12 12 12 12 12 12 12 11 11 11 11 11 10 10 10 10 10 10 9 9 9 9 8 8 8 7 7 7 7 7 6 6 6 6
12 12 12 12 12 12 12 12 12 11 11 11 11 11 11 11 11 11 10 10 10 10 10 10 9 9 9 9 9 9 8 8 8 7 7 7 7 7 7 6 6 6 5 5
11 11 11 11 11 11 11 11 11 11 11 11 11 11 10 10 10 10 10 10 9 9 9 9 9 9 8 8 8 8 8 7 7 7 7 7 7 6 6 6 5 5 5 5
Wind_Speed
7 6 6 7 8 8 9 8 6 4 4 4 5 6 8 8 9 10 10 10 10 10 10 9 9 8 8 8 8 9 8 7 6 6 6 5 4 4 4 3 3 4 5 4
9 8 8 9 9 9 9 9 8 6 4 3 4 4 6 8 9 10 10 10 10 11 10 10 9 8 7 9 9 9 8 7 7 7 6 5 5 5 5 4 3 4 5 5
9 9 9 10 8 9 9 8 7 6 3 4 5 5 6 8 8 9 10 10 10 10 10 11 10 9 8 9 9 9 8 8 7 7 6 5 5 5 5 4 3 4 4 5
8 8 9 5 4 5 6 7 7 5 3 4 5 5 6 7 9 8 9 10 10 9 9 9 10 10 9 8 9 9 9 8 7 7 7 6 5 5 4 4 4 4 4 4
6 8 8 6 4 4 5 6 4 4 3 3 4 4 5 6 7 7 8 8 8 9 9 9 10 10 9 9 8 8 9 9 8 8 7 6 6 5 4 4 4 4 4 4
7 8 8 4 2 1 3 4 3 4 4 4 5 4 3 6 6 6 7 7 8 8 9 9 9 10 10 9 8 8 8 8 8 8 7 7 6 5 4 4 4 5 4 4
10 9 6 2 3 3 4 1 2 3 3 3 3 3 5 7 7 6 6 6 7 8 7 8 9 10 9 9 8 8 8 8 8 8 8 7 6 5 5 4 4 4 5 4
9 9 5 2 3 2 1 2 2 2 2 2 4 6 6 7 7 7 7 7 7 7 6 7 9 10 9 8 8 8 8 8 8 8 8 7 6 5 5 5 5 4 4 3
4 2 1 3 1 1 2 3 4 4 3 4 5 5 6 7 7 7 7 7 6 6 7 6 7 8 9 8 9 9 8 8 8 8 7 7 7 6 5 5 4 4 4 3
5 3 2 1 1 2 3 3 3 3 4 4 4 4 5 6 7 7 6 7 6 7 7 6 6 7 8 9 9 10 9 9 8 8 7 6 5 5 5 4 4 4 4 4
5 2 2 2 2 2 2 3 3 3 3 3 4 4 4 5 6 7 6 6 6 7 7 7 7 7 8 9 9 9 9 8 7 7 7 6 5 4 4 4 5 5 4 4
4 3 3 1 1 1 1 2 2 2 2 3 4 4 4 4 5 6 7 6 6 6 7 7 8 8 7 8 9 9 8 7 6 6 6 6 6 4 4 4 5 5 5 5
2 2 2 2 2 1 1 1 1 2 2 2 3 3 4 4 5 6 7 7 7 7 6 7 8 8 7 7 8 8 8 7 6 6 6 6 6 6 4 3 4 4 5 5
1 1 2 2 2 1 1 1 1 1 2 3 3 4 4 5 5 5 7 7 7 7 7 7 7 8 8 8 7 7 7 7 7 5 6 6 6 6 6 6 4 2 2 5
3 3 2 2 2 1 1 2 2 2 2 3 4 4 4 5 5 4 5 6 7 7 6 7 7 7 8 8 7 7 6 5 5 5 5 5 5 5 5 5 5 4 3 3
4 3 3 4 4 3 3 3 3 2 2 3 4 4 4 4 4 4 5 6 7 7 6 7 6 7 7 7 7 6 5 7 6 5 5 5 5 5 5 5 5 5 5 4
5 5 5 5 5 5 4 3 3 3 2 3 3 4 4 5 5 4 4 5 5 5 5 6 6 6 7 7 7 5 5 6 7 5 5 4 4 4 5 4 4 4 4 6
5 5 5 5 4 4 3 3 3 3 3 3 4 4 5 6 6 5 5 5 5 5 5 5 6 6 6 7 6 5 5 5 5 4 4 4 4 4 4 4 4 4 4 5
4 5 4 4 3 3 3 3 3 3 3 3 4 5 4 5 5 5 5 6 6 6 5 6 8 7 6 7 6 5 5 5 4 4 4 5 4 4 4 4 4 4 4 4
5 5 4 4 3 3 3 3 3 4 3 4 4 4 4 4 5 5 6 5 4 4 5 7 7 5 6 6 6 4 4 5 5 4 4 4 4 4 4 4 4 4 4 4
5 4 3 3 3 3 3 3 4 5 4 4 5 5 4 4 5 5 5 4 4 5 6 7 5 5 5 6 6 4 4 4 4 4 4 4 4 4 4 4 4 4 4 4
4 4 4 3 3 3 3 3 4 4 4 4 4 4 4 4 5 4 4 4 5 7 6 5 4 6 7 7 4 4 4 4 4 4 4 4 4 4 4 4 4 4 3 3
4 4 4 4 4 3 3 3 4 4 4 4 4 4 4 4 4 4 4 4 5 7 5 4 6 9 8 5 4 4 4 4 4 4 4 4 4 4 4 4 3 3 3 3
3 3 3 3 3 4 4 3 3 3 3 3 4 4 4 4 3 3 4 6 7 7 4 6 9 9 7 4 4 4 4 4 3 3 3 3 3 3 3 3 3 3 3 3
3 3 3 3 3 3 3 4 4 4 4 3 3 3 3 3 3 4 5 6 7 7 5 7 9 8 5 4 4 4 4 4 4 3 3 3 3 3 3 3 2 2 2 3
2 2 2 2 2 2 3 3 3 3 3 3 3 3 3 3 4 4 4 6 7 6 5 5 5 5 3 3 4 4 4 4 4 3 3 3 3 3 3 2 2 2 2 2
2 2 2 2 2 2 2 3 3 3 3 3 3 3 3 4 4 4 5 5 5 4 4 4 4 4 3 3 3 3 3 3 3 3 3 3 3 3 3 3 2 2 2 2
Wind_Direction
243 252 240 244 241 235 241 247 256 243 222 206 186 174 168 165 163 162 158 160 159 160 161 163 166 169 168 157 151 149 148 147 148 142 136 137 136 133 117 108 109 110 106 99
254 247 245 250 241 236 240 242 247 245 240 196 170 167 164 163 163 163 165 166 164 164 163 168 168 165 159 156 155 152 153 151 142 141 137 137 136 126 117 111 111 112 113 105
262 249 249 247 237 234 234 234 235 242 222 171 169 169 171 166 167 169 167 166 166 169 170 170 169 168 166 160 155 156 152 142 142 142 136 140 138 124 126 129 119 111 109 110
259 257 253 247 230 224 231 236 234 237 212 179 171 166 171 164 166 172 168 165 168 172 172 170 167 166 165 160 159 159 150 144 143 140 141 141 135 136 140 130 123 118 109 112
258 259 261 247 235 226 226 237 227 215 207 171 151 158 167 157 156 164 164 163 165 168 167 168 165 164 161 160 157 154 148 151 152 149 147 145 146 151 146 136 130 129 122 122
248 251 256 246 201 229 233 233 202 197 187 165 168 183 158 135 131 133 140 150 156 159 160 161 162 159 158 159 159 157 153 153 150 148 149 152 151 150 143 139 143 136 135 141
241 248 251 242 172 196 225 203 134 171 159 164 163 126 130 132 131 128 133 141 144 150 153 158 157 155 159 158 161 155 148 144 144 149 154 150 146 146 142 143 146 147 150 154
234 240 235 152 185 225 328 73 104 109 121 120 107 107 116 122 126 133 134 134 137 141 143 146 150 156 158 156 151 143 145 146 149 155 157 150 146 148 149 149 155 158 152 149
236 236 133 151 132 29 7 48 60 68 73 91 102 114 127 133 132 131 133 135 134 138 139 140 146 151 150 147 145 144 147 150 151 152 148 148 153 156 158 159 162 166 159 159
239 218 194 158 100 41 24 42 47 60 87 103 109 118 128 133 134 133 135 139 141 143 147 149 148 144 145 143 144 146 150 153 154 155 149 145 147 151 155 165 168 170 169 166
257 240 222 181 140 111 70 64 68 69 85 111 115 128 137 140 141 141 141 145 151 155 158 155 145 141 141 146 150 152 152 155 155 149 147 145 141 147 159 167 174 174 175 170
241 246 262 229 141 91 83 79 87 94 100 124 134 143 145 144 143 144 147 148 151 157 158 155 149 148 148 151 157 159 160 161 159 155 152 150 143 120 79 120 135 141 146 153
278 302 301 295 289 253 218 136 119 137 150 144 141 143 144 141 145 147 151 156 160 160 159 156 152 154 156 158 163 165 161 160 159 161 161 161 158 155 146 93 86 109 135 141
278 281 267 267 260 243 170 154 146 162 166 158 152 142 140 143 147 154 161 161 156 153 156 156 155 159 159 160 162 162 156 156 158 160 164 167 170 169 167 166 166 156 154 163
252 250 250 267 254 218 178 178 194 192 169 157 149 149 153 154 156 160 155 148 147 152 157 158 160 160 157 160 161 159 154 156 159 158 161 168 170 169 170 169 165 160 151 154
232 218 215 225 217 210 208 199 200 201 190 167 159 158 160 153 148 145 145 147 155 161 163 161 158 154 152 155 154 154 157 162 159 159 164 170 174 173 171 170 171 171 169 163
224 210 215 214 210 212 209 197 199 203 189 175 154 147 150 147 144 144 145 146 148 151 152 149 145 140 147 154 153 154 154 161 163 166 170 172 171 172 173 174 175 174 172 166
230 221 213 204 201 209 209 187 182 181 177 162 153 157 164 161 159 156 149 143 138 137 140 141 141 143 149 152 153 151 156 164 171 172 164 160 165 173 173 174 176 172 167 166
232 224 215 202 207 211 198 180 168 168 167 167 168 169 167 159 153 152 149 151 154 156 157 149 150 152 147 147 149 153 161 165 166 165 161 162 173 179 178 178 175 174 170 164
231 218 202 199 204 201 191 171 167 166 172 176 168 159 156 154 152 151 153 156 158 154 147 146 155 156 149 148 147 157 162 165 168 169 168 172 181 182 178 175 174 176 177 176
207 195 186 193 190 188 188 181 174 172 176 177 167 163 163 159 157 153 151 154 145 136 142 149 157 153 150 147 152 161 166 169 171 173 175 178 182 181 180 179 180 184 185 185
189 184 179 175 179 185 184 180 170 167 166 167 160 160 160 161 157 153 149 150 145 142 147 158 155 145 147 143 157 163 167 172 174 174 177 180 181 183 184 184 186 186 187 191
176 173 173 180 186 184 180 173 166 163 168 173 172 170 168 163 160 160 163 150 143 148 151 153 146 142 145 152 160 166 172 178 179 178 178 181 184 183 181 181 182 186 187 184
170 176 181 177 173 173 172 160 156 163 164 170 172 165 160 152 152 149 139 142 144 144 142 143 145 151 155 164 162 165 174 177 174 170 167 169 172 173 171 170 176 184 184 177
168 172 166 160 164 167 163 155 156 158 160 168 163 152 149 146 141 133 132 138 142 141 139 148 153 158 164 163 163 165 169 170 166 163 163 162 163 164 162 161 170 175 173 168
149 151 155 161 156 151 154 155 160 160 159 154 146 138 129 119 116 120 126 137 140 142 143 150 159 164 168 161 159 159 157 157 158 156 155 153 151 149 154 159 159 150 160 162
129 127 124 129 130 134 140 146 154 159 155 145 135 126 122 121 123 127 129 137 144 146 147 150 156 160 152 150 153 151 146 145 144 143 144 145 146 150 152 150 148 151 147 142
Height
1486 1484 1485 1487 1488 1488 1492 1493 1499 1498 1496 1493 1492 1493 1497 1500 1503 1507 1510 1514 1518 1521 1525 1528 1532 1535 1538 1541 1544 1546 1549 1551 1553 1556 1558 1559 1561 1563 1564 1565 1567 1567 1568 1569
1486 1482 1482 1485 1484 1485 1487 1487 1489 1490 1491 1487 1489 1492 1495 1498 1501 1505 1508 1512 1516 1519 1523 1526 1529 1533 1536 1539 1542 1545 1547 1550 1552 1554 1556 1558 1560 1561 1563 1564 1565 1566 1567 1568
1490 1482 1482 1488 1481 1480 1482 1481 1484 1489 1487 1485 1488 1490 1493 1496 1499 1502 1506 1510 1513 1517 1520 1524 1527 1530 1534 1537 1540 1543 1546 1548 1550 1553 1554 1556 1558 1560 1561 1563 1564 1565 1566 1566
1487 1487 1499 1483 1470 1472 1476 1477 1477 1479 1480 1482 1485 1488 1491 1494 1497 1500 1504 1507 1511 1515 1518 1522 1525 1529 1532 1535 1538 1541 1544 1546 1548 1550 1552 1554 1556 1558 1560 1561 1562 1564 1565 1565
1488 1493 1487 1476 1469 1470 1475 1477 1474 1477 1479 1481 1484 1487 1490 1492 1495 1498 1501 1504 1508 1512 1516 1519 1523 1526 1530 1533 1536 1539 1541 1543 1546 1548 1550 1552 1554 1556 1558 1559 1561 1562 1563 1564
1487 1494 1496 1479 1469 1469 1473 1480 1473 1475 1477 1480 1483 1488 1490 1491 1493 1497 1499 1503 1506 1510 1514 1517 1521 1524 1527 1531 1533 1536 1538 1541 1544 1546 1548 1550 1552 1554 1556 1557 1559 1560 1561 1562
1485 1488 1481 1470 1468 1471 1483 1482 1473 1474 1476 1479 1481 1485 1488 1490 1493 1495 1498 1501 1505 1508 1511 1515 1518 1522 1525 1528 1530 1533 1536 1539 1541 1544 1546 1548 1550 1552 1554 1555 1557 1558 1559 1561
1478 1484 1484 1469 1469 1473 1474 1471 1472 1474 1476 1479 1481 1484 1486 1489 1491 1494 1497 1500 1503 1506 1509 1513 1516 1519 1522 1525 1528 1531 1534 1537 1539 1542 1544 1546 1548 1550 1552 1553 1555 1556 1558 1559
1470 1474 1469 1468 1470 1471 1472 1472 1474 1475 1477 1479 1481 1484 1486 1488 1491 1493 1496 1499 1502 1505 1508 1511 1514 1517 1520 1523 1526 1529 1532 1534 1536 1539 1541 1543 1546 1548 1549 1551 1553 1554 1555 1557
1465 1465 1466 1468 1469 1471 1472 1473 1475 1476 1478 1479 1481 1484 1486 1488 1491 1493 1495 1498 1500 1503 1506 1509 1512 1515 1518 1521 1524 1526 1529 1531 1534 1536 1539 1541 1543 1545 1547 1548 1550 1551 1553 1554
1464 1465 1466 1468 1469 1471 1472 1474 1475 1477 1478 1480 1481 1484 1486 1488 1490 1492 1494 1497 1499 1501 1504 1507 1510 1513 1516 1518 1521 1524 1526 1529 1531 1534 1536 1538 1540 1543 1544 1546 1548 1549 1550 1551
1465 1465 1466 1468 1469 1471 1472 1474 1475 1477 1478 1480 1481 1483 1485 1487 1489 1491 1493 1495 1498 1500 1503 1505 1508 1510 1513 1516 1518 1521 1524 1526 1529 1531 1533 1535 1537 1540 1542 1544 1545 1547 1548 1549
1462 1464 1465 1467 1468 1470 1472 1473 1475 1476 1478 1479 1481 1482 1484 1486 1488 1490 1492 1494 1496 1498 1501 1503 1506 1508 1511 1513 1516 1518 1521 1523 1526 1528 1530 1532 1534 1536 1538 1540 1542 1543 1544 1546
1462 1463 1464 1466 1467 1469 1471 1472 1473 1475 1477 1478 1480 1481 1483 1485 1486 1488 1490 1492 1494 1496 1499 1501 1503 1505 1508 1511 1513 1516 1518 1521 1523 1525 1527 1529 1531 1533 1535 1536 1538 1539 1541 1542
1460 1462 1463 1464 1466 1468 1469 1471 1472 1474 1475 1477 1478 1480 1481 1483 1485 1487 1489 1490 1492 1494 1496 1499 1501 1503 1505 1508 1510 1513 1515 1518 1520 1522 1524 1526 1528 1530 1532 1533 1535 1536 1537 1539
1458 1460 1461 1463 1464 1466 1468 1469 1471 1472 1473 1475 1476 1478 1480 1482 1483 1485 1487 1488 1490 1491 1494 1496 1498 1500 1503 1505 1508 1510 1513 1515 1517 1519 1522 1524 1525 1527 1528 1530 1531 1533 1534 1535
1456 1457 1459 1460 1462 1464 1465 1467 1469 1470 1471 1473 1474 1476 1478 1480 1482 1483 1485 1486 1488 1490 1492 1494 1496 1498 1500 1503 1505 1507 1510 1512 1515 1517 1518 1520 1522 1524 1525 1526 1528 1529 1530 1531
1453 1454 1456 1458 1459 1461 1463 1465 1466 1468 1469 1471 1472 1474 1476 1478 1479 1481 1483 1485 1486 1488 1490 1492 1494 1496 1498 1500 1503 1505 1507 1509 1511 1514 1515 1517 1519 1520 1522 1523 1524 1525 1527 1528
1450 1452 1454 1455 1457 1459 1460 1462 1464 1466 1468 1469 1471 1472 1474 1476 1477 1479 1481 1483 1484 1486 1488 1490 1492 1494 1496 1498 1500 1502 1504 1506 1508 1510 1512 1514 1516 1517 1519 1520 1521 1522 1523 1524
1447 1449 1451 1453 1455 1456 1458 1460 1462 1463 1465 1467 1469 1470 1472 1474 1475 1477 1479 1480 1482 1483 1485 1487 1489 1491 1493 1495 1497 1500 1502 1504 1505 1507 1509 1510 1512 1513 1515 1516 1517 1518 1519 1520
1444 1446 1448 1450 1452 1454 1455 1457 1459 1461 1463 1465 1466 1468 1470 1471 1473 1475 1476 1478 1480 1482 1483 1485 1487 1489 1491 1493 1495 1497 1499 1500 1502 1503 1505 1507 1508 1510 1511 1512 1513 1514 1515 1516
1441 1443 1446 1448 1449 1451 1453 1455 1457 1458 1460 1462 1464 1466 1468 1469 1471 1472 1474 1476 1477 1479 1481 1483 1485 1486 1488 1490 1492 1493 1495 1497 1499 1500 1502 1503 1504 1506 1507 1508 1509 1510 1511 1512
1439 1441 1443 1445 1446 1448 1451 1453 1455 1456 1458 1460 1462 1463 1465 1466 1468 1470 1471 1473 1475 1477 1478 1480 1482 1484 1485 1487 1489 1490 1492 1494 1495 1497 1498 1499 1501 1502 1503 1504 1505 1506 1507 1507
1437 1439 1440 1442 1444 1446 1448 1450 1452 1454 1456 1458 1459 1461 1463 1464 1466 1468 1469 1470 1472 1474 1475 1477 1479 1481 1483 1484 1486 1487 1489 1490 1492 1493 1495 1496 1497 1498 1499 1500 1501 1502 1502 1503
1435 1436 1438 1440 1441 1443 1445 1447 1449 1452 1453 1455 1457 1459 1460 1462 1463 1465 1466 1467 1469 1471 1473 1474 1476 1478 1480 1481 1482 1484 1485 1487 1488 1490 1491 1492 1493 1494 1495 1496 1497 1497 1498 1498
1433 1435 1436 1437 1439 1441 1443 1445 1447 1449 1451 1452 1454 1456 1458 1459 1461 1462 1464 1465 1467 1469 1470 1471 1473 1475 1477 1478 1479 1480 1482 1483 1485 1486 1487 1488 1489 1490 1491 1492 1492 1493 1493 1493
1432 1433 1434 1436 1437 1439 1441 1443 1445 1446 1448 1450 1451 1453 1455 1456 1458 1459 1461 1462 1464 1466 1467 1469 1470 1472 1473 1475 1476 1477 1478 1480 1481 1482 1483 1484 1485 1486 1487 1488 1488 1489 1489 1489